This demonstration page uses our WeatherBlox Daily Observations layout. Learn more.

Left ArrowRight Arrow

41.55636, -103.73856

Hourly Observations for August 22, 2021

Temp ( °F °C ) Dew Point ( °F °C ) Humidity (%) Winds ( mph kmh ) Pressure ( in mb ) Visibility ( mi km ) Precip ( " mm )
12:58 am 00:58 Clear 65 18.6 46 7.9 50 50 S 26 43 29.79 1009 10 16 0.00 0.00
1:58 am 01:58 Clear 65 18.4 47 8.6 53 53 S 30 48 29.77 1008 10 16 0.00 0.00
2:58 am 02:58 Partly Cloudy 64 18 50 9.8 59 59 S 28 44 29.75 1007 10 16 0.00 0.00
3:58 am 03:58 Mostly Cloudy 65 18.3 53 11.7 66 66 S 36 57 29.73 1007 10 16 0.00 0.00
4:58 am 04:58 Mostly Cloudy 66 18.7 54 12.3 67 67 W 17 28 29.82 1010 10 16 0.00 0.00
5:58 am 05:58 Cloudy 64 17.9 42 5.8 45 45 W 12 19 29.85 1011 10 16 0.00 0.00
6:58 am 06:58 Sunny 60 15.3 42 5.6 53 53 WSW 9 15 29.86 1011 10 16 0.00 0.00
7:58 am 07:58 Sunny 65 18.2 41 5.2 43 43 W 14 22 29.87 1012 10 16 0.00 0.00
8:58 am 08:58 Mostly Sunny 69 20.5 41 5.1 37 37 W 10 17 29.84 1011 10 16 0.00 0.00
9:58 am 09:58 Mostly Sunny 73 23 42 5.5 32 32 NW 12 19 29.81 1010 10 16 0.00 0.00
10:58 am 10:58 Partly Cloudy 78 25.5 42 5.3 27 27 WNW 10 17 29.81 1009 10 16 0.00 0.00
11:58 am 11:58 Mostly Sunny 81 27.3 41 5.1 24 24 SW 10 17 29.81 1009 10 16 0.00 0.00
12:58 pm 12:58 Partly Cloudy 85 29.6 39 4.1 20 20 WNW 12 19 29.78 1009 10 16 0.00 0.00
1:58 pm 13:58 Partly Cloudy 86 29.9 37 2.8 18 18 W 12 19 29.78 1009 10 16 0.00 0.00
2:58 pm 14:58 Partly Cloudy 87 30.7 38 3.2 17 17 W 8 13 29.78 1008 10 16 0.00 0.00
3:58 pm 15:58 Partly Cloudy 87 30.4 38 3.6 18 18 N 16 26 29.78 1009 10 16 0.00 0.00
4:58 pm 16:58 Mostly Sunny 85 29.3 36 2.4 18 18 NE 14 22 29.78 1009 10 16 0.00 0.00
5:58 pm 17:58 Sunny 85 29.4 34 0.9 16 16 N 10 17 29.80 1009 10 16 0.00 0.00
6:58 pm 18:58 Sunny 80 26.7 37 2.5 21 21 NNE 5 7 29.81 1010 10 16 0.00 0.00
7:58 pm 19:58 Clear 74 23.2 37 2.6 26 26 E 8 13 29.83 1010 10 16 0.00 0.00
8:58 pm 20:58 Clear 76 24.2 35 1.4 22 22 E 6 9 29.85 1011 10 16 0.00 0.00
9:58 pm 21:58 Clear 73 22.8 35 1.4 24 24 ESE 8 13 29.84 1010 10 16 0.00 0.00
10:58 pm 22:58 Clear 66 18.8 37 2.5 34 34 SSW 7 11 29.85 1011 10 16 0.00 0.00
11:58 pm 23:58 Clear 61 16.2 36 2.3 39 39 SSW 7 11 29.87 1011 10 16 0.00 0.00

Powered by AerisWeather